TimeEDT,TemperatureF,Dew PointF,Humidity,Sea Level PressureIn,VisibilityMPH,Wind Direction,Wind SpeedMPH,Gust SpeedMPH,PrecipitationIn,Events,Conditions,WindDirDegrees,DateUTC
12:53 AM,84.9,73.9,69,30.06,10.0,South,6.9,-,N/A,,Clear,190,2013-08-03 04:53:00
1:53 AM,84.9,73.9,69,30.05,10.0,SSW,4.6,-,N/A,,Clear,200,2013-08-03 05:53:00
2:53 AM,84.9,75.0,72,30.05,10.0,South,6.9,-,N/A,,Partly Cloudy,190,2013-08-03 06:53:00
3:53 AM,84.9,75.0,72,30.04,10.0,Variable,4.6,-,N/A,,Scattered Clouds,0,2013-08-03 07:53:00
4:53 AM,84.0,73.9,72,30.04,10.0,Calm,Calm,-,N/A,,Clear,0,2013-08-03 08:53:00
5:53 AM,84.0,73.9,72,30.05,10.0,SSW,4.6,-,N/A,,Clear,210,2013-08-03 09:53:00
6:53 AM,84.0,73.9,72,30.06,10.0,South,4.6,-,N/A,,Partly Cloudy,170,2013-08-03 10:53:00
7:53 AM,86.0,73.9,67,30.07,10.0,SSE,4.6,-,N/A,,Partly Cloudy,160,2013-08-03 11:53:00
8:53 AM,87.1,75.0,67,30.09,10.0,SSE,6.9,-,N/A,,Partly Cloudy,160,2013-08-03 12:53:00
9:53 AM,89.1,75.9,65,30.11,10.0,South,4.6,-,N/A,,Scattered Clouds,180,2013-08-03 13:53:00
10:53 AM,90.0,73.9,59,30.12,10.0,Variable,6.9,-,N/A,,Clear,0,2013-08-03 14:53:00
11:53 AM,91.0,75.0,59,30.12,10.0,Variable,6.9,-,N/A,,Clear,0,2013-08-03 15:53:00
12:53 PM,91.9,75.9,59,30.12,10.0,SSE,5.8,-,N/A,,Partly Cloudy,160,2013-08-03 16:53:00
1:53 PM,91.9,75.0,58,30.11,10.0,Variable,5.8,-,N/A,,Clear,0,2013-08-03 17:53:00
2:53 PM,91.9,73.9,55,30.10,10.0,South,4.6,-,N/A,,Clear,180,2013-08-03 18:53:00
3:53 PM,90.0,72.0,55,30.09,10.0,South,3.5,-,N/A,,Clear,170,2013-08-03 19:53:00
4:53 PM,90.0,71.1,54,30.10,10.0,Variable,3.5,-,N/A,,Clear,0,2013-08-03 20:53:00
5:53 PM,89.1,72.0,57,30.09,10.0,Calm,Calm,-,N/A,,Clear,0,2013-08-03 21:53:00
6:53 PM,88.0,71.1,57,30.08,10.0,Calm,Calm,-,N/A,,Clear,0,2013-08-03 22:53:00
7:53 PM,87.1,70.0,57,30.09,10.0,Calm,Calm,-,N/A,,Clear,0,2013-08-03 23:53:00
8:53 PM,87.1,71.1,59,30.10,10.0,Calm,Calm,-,N/A,,Clear,0,2013-08-04 00:53:00
9:53 PM,86.0,71.1,61,30.12,10.0,Calm,Calm,-,N/A,,Clear,0,2013-08-04 01:53:00
10:53 PM,84.9,71.1,63,30.13,10.0,Calm,Calm,-,N/A,,Clear,0,2013-08-04 02:53:00
11:53 PM,84.9,73.0,67,30.12,10.0,Calm,Calm,-,N/A,,Clear,0,2013-08-04 03:53:00